Home   Weather   La Dune   Past weeks
Flag for Saint Pierre and Miquelon

Past Weather in La Dune, Saint Pierre and Miquelon — Yesterday and Last 2 Weeks

Currently: 37 °F. Mostly cloudy. (Weather station: Saint-Pierre, Saint Pierre and Miquelon). See more current weather

Past Weather in La Dune — Graph

°F

La Dune Temperature Yesterday

Maximum temperature yesterday: 32 °F (at 9:30 pm)
Minimum temperature yesterday: 19 °F (at 12:00 am)
Average temperature yesterday: 26 °F

High & Low Weather Summary for the Past Weeks

 TemperatureHumidityPressure
High43 °F (Feb 24, 10:00 pm)100% (Feb 18, 9:30 am)30.57 "Hg (Feb 18, 9:30 am)
Low18 °F (Feb 21, 10:00 pm)58% (Feb 21, 4:30 am)29.21 "Hg (Feb 18, 6:30 am)
Average29 °F85%29.99 "Hg
* Reported Feb 17 4:00 pm — Mar 3 4:00 pm, La Dune. Weather by CustomWeather, © 2024

Note: Actual official high and low records may vary slightly from our data, if they occured in-between our weather recording intervals... More about our weather records

La Dune Weather History for the Previous 24 Hours

Scroll right to see more
 ConditionsComfort  
Time TempWeatherWind HumidityBarometerVisibility
4:00 pm
Sun, Mar 3
37 °FCloudy.16 mph93%30.36 "Hg6 mi
3:30 pm37 °FSunny.16 mph93%30.36 "Hg10 mi
3:00 pm37 °FLow clouds.18 mph93%30.36 "Hg6 mi
2:30 pm37 °FMostly cloudy.20 mph93%30.39 "Hg6 mi
2:00 pm37 °FClear.21 mph87%30.39 "Hg6 mi
1:30 pm37 °FSunny.15 mph87%30.39 "Hg10 mi
1:00 pm37 °FSunny.18 mph93%30.39 "Hg10 mi
12:30 pm37 °FClear.22 mph87%30.42 "Hg6 mi
12:00 pm37 °FSunny.18 mph87%30.42 "Hg10 mi
11:30 am37 °FMostly cloudy.17 mph87%30.42 "HgN/A
11:00 am36 °FMostly cloudy.20 mph93%30.45 "Hg6 mi
10:30 am36 °FMostly cloudy.21 mph93%30.45 "HgN/A
10:00 am36 °FMore clouds than sun.20 mph93%30.45 "Hg6 mi
9:30 am36 °FOvercast.20 mph93%30.45 "Hg6 mi
9:00 am36 °FOvercast.17 mph93%30.42 "Hg5 mi
8:30 am36 °FDrizzle. Overcast.20 mph93%30.42 "Hg5 mi
8:00 am36 °FDrizzle. Overcast.17 mph93%30.42 "Hg5 mi
7:30 am36 °FMore clouds than sun.18 mph93%30.42 "Hg5 mi
7:00 am36 °FDrizzle. Overcast.14 mph93%30.42 "Hg5 mi
6:30 am36 °FLight rain. Mostly cloudy.17 mph93%30.42 "Hg5 mi
6:00 am34 °FOvercast.17 mph93%30.42 "Hg5 mi
5:00 am34 °FClear.25 mph93%30.42 "Hg6 mi
4:30 am34 °FClear.25 mph87%30.42 "Hg6 mi
4:00 am34 °FPartly cloudy.25 mph87%30.42 "HgN/A
3:30 am34 °FPartly cloudy.25 mph93%30.42 "Hg6 mi
3:00 am34 °FPassing clouds.25 mph93%30.42 "Hg6 mi
2:30 am34 °FClear.24 mph93%30.45 "Hg6 mi
2:00 am34 °FPassing clouds.22 mph93%30.45 "Hg5 mi
1:30 am34 °FPassing clouds.21 mph93%30.45 "Hg5 mi
1:00 am32 °FClear.22 mph100%30.45 "Hg5 mi
12:30 am32 °FClear.23 mph100%30.48 "Hg5 mi
12:00 am32 °FClear.21 mph100%30.48 "Hg5 mi
11:00 pm
Sat, Mar 2
32 °FPassing clouds.16 mph93%30.48 "Hg5 mi
10:30 pm32 °FPassing clouds.17 mph93%30.48 "Hg5 mi
10:00 pm32 °FPassing clouds.18 mph87%30.51 "HgN/A
9:30 pm32 °FOvercast.24 mph87%30.51 "HgN/A
9:00 pm30 °FPassing clouds.23 mph86%30.51 "HgN/A
8:30 pm30 °FClear.23 mph80%30.51 "Hg10 mi
8:00 pm30 °FClear.22 mph75%30.51 "Hg10 mi
7:30 pm28 °FClear.17 mph69%30.51 "Hg10 mi
7:00 pm28 °FClear.21 mph64%30.48 "Hg10 mi
6:30 pm28 °FSunny.23 mph64%30.48 "Hg10 mi
6:00 pm28 °FPassing clouds.23 mph69%30.48 "HgN/A
5:30 pm28 °FScattered clouds.22 mph69%30.48 "HgN/A
5:00 pm28 °FPassing clouds.23 mph69%30.48 "HgN/A
Weather by CustomWeather, © 2024

See weather overview